Find Kosmos-946

NORAD ID: 10292 Int'l Des: 1977-079 Owner: GUKOSR Country: SU operational
LEOCIRCULAR

Current View

Loading 3D Globe...

About Kosmos-946

Description loading...

Upcoming Passes

Passes for default location (London). Set your location on the main map for personalized predictions.

Altitude History

Loading altitude history...

Two-Line Element Set

1 10292U 77079H 26151.16013596 .00000014 00000-0 20648-3 0 9998
2 10292 74.0237 208.7491 0030261 52.4345 337.0916 12.44919895196787
Epoch: May 31, 2026 • Age: 12 hours

Current Status

Altitude 1492.7 km
Velocity 7.12 km/s
Sub-Earth Point 27.31°N, 110.54°W
Launch Date Aug 24, 1977
Age 48.7 years
Type other

Technical Details

Classification Payload
Mass 60.00 kg
Dry Mass 60.00 kg
Total Mass 60.00 kg
Length 0.80 m
Diameter 0.80 m
Span 0.80 m
Shape Poly
Manufacturer NPOPM
Bus Type Strela-1 11F625
Phase Status In Orbit
Owner/State GUKOSR/SU

Most Searched